SCP
0 0 0 0 0 0 0 0 0 0 0 0 0 0 0 0 0 0 0 0 0 0 0 0 0 0 0 0 0 0 0 0 0 0 0 0 0 0 0 0 0 0 0 0
0 0 0 0 0 0 0 0 0 0 0 0 0 0 0 0 0 0 0 0 0 0 0 0 0 0 0 0 0 0 0 0 0 0 0 0 0 0 0 0 0 0 0 0
0 0 0 0 0 0 0 0 0 0 0 0 0 0 0 0 0 0 0 0 0 0 0 0 0 0 0 0 0 0 0 0 0 0 0 0 0 0 0 0 0 0 0 0
0 0 0 0 0 0 0 0 0 0 0 0 0 0 0 0 0 0 0 0 0 0 0 0 0 0 0 0 0 0 0 0 0 0 0 0 0 0 0 0 0 0 0 0
0 0 0 0 0 0 0 0 0 0 0 0 0 0 0 0 0 0 0 0 0 0 0 0 0 0 0 0 0 0 0 0 0 0 0 0 0 0 0 0 0 0 0 0
0 0 0 0 0 0 0 0 0 0 0 0 0 0 0 0 0 0 0 0 0 0 0 0 0 0 0 0 0 0 0 0 0 0 0 0 0 0 0 0 0 0 0 0
0 0 0 0 0 0 0 0 0 0 0 0 0 0 0 0 0 0 0 0 0 0 0 0 0 0 0 0 0 0 0 0 0 0 0 0 0 0 0 0 0 0 0 0
0 0 0 0 0 0 0 0 0 0 0 0 0 0 0 0 0 0 0 0 0 0 0 0 0 0 0 0 0 0 0 0 0 0 0 0 0 0 0 0 0 0 0 0
0 0 0 0 0 0 0 0 0 0 0 0 0 0 0 0 0 0 0 0 0 0 0 0 0 0 0 0 0 0 0 0 0 0 0 0 0 0 0 0 0 0 0 0
0 0 0 0 0 0 0 0 0 0 0 0 0 0 0 0 0 0 0 0 0 0 0 0 0 0 0 0 0 0 0 0 0 0 0 0 0 0 0 0 0 0 0 0
0 0 0 0 0 0 0 0 0 0 0 0 0 0 0 0 0 0 0 0 0 0 0 0 0 0 0 0 0 0 0 0 0 0 0 0 0 0 0 0 0 0 0 0
0 0 0 0 0 0 0 0 0 0 0 0 0 0 0 0 0 0 0 0 0 0 0 0 0 0 0 0 0 0 0 0 0 0 0 0 0 0 0 0 0 0 0 0
0 0 0 0 0 0 0 0 0 0 0 0 0 0 0 0 0 0 0 0 0 0 0 0 0 0 0 0 0 0 0 0 0 0 0 0 0 0 0 0 0 0 0 0
0 0 0 0 0 0 0 0 0 0 0 0 0 0 0 0 0 0 0 0 0 0 0 0 0 0 0 0 0 0 0 0 0 0 0 0 0 0 0 0 0 0 0 0
0 0 0 0 0 0 0 0 0 0 0 0 0 0 0 0 0 0 0 0 0 0 0 0 0 0 0 0 0 0 0 0 0 0 0 0 0 0 0 0 0 0 0 0
0 0 0 0 0 0 0 0 0 0 0 0 0 0 0 0 0 0 0 0 0 0 0 0 0 0 0 0 0 0 0 0 0 0 0 0 0 0 0 0 0 0 0 0
0 0 0 0 0 0 0 0 0 0 0 0 0 0 0 0 0 0 0 0 0 0 0 0 0 0 0 0 0 0 0 0 0 0 0 0 0 0 0 0 0 0 0 0
0 0 0 0 0 0 0 0 0 0 0 0 0 0 0 0 0 0 0 0 0 0 0 0 0 0 0 0 0 0 0 0 0 0 0 0 0 0 0 0 0 0 0 0
0 0 0 0 0 0 0 0 0 0 0 0 0 0 0 0 0 0 0 0 0 0 0 0 0 0 0 0 0 0 0 0 0 0 0 0 0 0 0 0 0 0 0 0
0 0 0 0 0 0 0 0 0 0 0 0 0 0 0 0 0 0 0 0 0 0 0 0 0 0 0 0 0 0 0 0 0 0 0 0 0 0 0 0 0 0 0 0
0 0 0 0 0 0 0 0 0 0 0 0 0 0 0 0 0 0 0 0 0 0 0 0 0 0 0 0 0 0 0 0 0 0 0 0 0 0 0 0 0 0 0 0
0 0 0 0 0 0 0 0 0 0 0 0 0 0 0 0 0 0 0 0 0 0 0 0 0 0 0 0 0 0 0 0 0 0 0 0 0 0 0 0 0 0 0 0
0 0 0 0 0 0 0 0 0 0 0 0 0 0 0 0 0 0 0 0 0 0 0 0 0 0 0 0 0 0 0 0 0 0 0 0 0 0 0 0 0 0 0 0
0 0 0 0 0 0 0 0 0 0 0 0 0 0 0 0 0 0 0 0 0 0 0 0 0 0 0 0 0 0 0 0 0 0 0 0 0 0 0 0 0 0 0 0
0 0 0 0 0 0 0 0 0 0 0 0 0 0 0 0 0 0 0 0 0 0 0 0 0 0 0 0 0 0 0 0 0 0 0 0 0 0 0 0 0 0 0 0
0 0 0 0 0 0 0 0 0 0 0 0 0 0 0 0 0 0 0 0 0 0 0 0 0 0 0 0 0 0 0 0 0 0 0 0 0 0 0 0 0 0 0 0
0 0 0 0 0 0 0 0 0 0 0 0 0 0 0 0 0 0 0 0 0 0 0 0 0 0 0 0 0 0 0 0 0 0 0 0 0 0 0 0 0 0 0 0
Wind_Speed
7 7 6 8 12 13 11 10 11 12 11 9 7 6 4 3 2 2 2 2 3 3 3 3 3 4 4 5 6 7 8 9 10 9 9 9 10 11 11 11 11 11 11 10
6 7 7 9 13 16 17 16 15 13 13 8 6 3 3 2 2 3 4 4 4 4 3 4 5 5 5 5 6 7 8 8 8 8 9 9 10 10 10 10 10 10 11 11
5 4 5 10 11 14 15 15 16 18 13 2 4 5 6 5 4 5 5 5 5 5 6 6 6 6 6 6 6 7 8 7 8 9 9 9 9 10 10 11 10 10 10 10
4 2 8 7 4 5 9 9 9 9 4 5 7 8 7 5 5 5 5 5 6 5 5 5 4 5 5 5 7 7 7 7 8 9 8 8 9 10 9 8 9 9 9 10
3 4 7 7 3 5 8 9 5 6 4 5 4 4 6 5 4 6 7 6 6 6 5 4 4 5 6 6 6 7 8 8 8 9 9 9 9 9 7 8 8 7 8 9
3 4 7 4 4 4 4 7 3 3 3 2 1 4 8 5 5 7 6 5 5 3 2 3 4 6 8 7 8 9 9 8 8 9 9 9 9 8 6 7 7 7 7 7
6 6 7 5 4 2 4 6 5 4 4 4 7 11 8 5 6 7 7 5 4 3 3 4 4 6 7 7 8 8 7 7 7 8 8 8 8 7 8 7 7 7 7 5
5 7 8 3 2 2 4 5 4 5 5 6 10 10 7 6 6 6 5 4 3 3 3 2 4 7 7 8 6 7 8 8 8 8 7 7 9 7 8 8 8 7 6 5
7 7 5 3 4 5 4 6 6 6 7 7 9 9 8 8 6 5 5 4 3 3 3 2 4 6 8 6 7 8 9 9 8 8 7 7 9 9 7 7 6 6 6 5
6 8 8 8 7 7 6 8 9 8 8 7 8 9 8 7 6 5 5 4 3 3 3 3 3 4 6 7 8 9 10 9 8 9 8 7 6 6 7 7 7 6 6 5
8 9 9 8 7 8 9 9 9 9 8 7 7 9 8 7 6 5 4 3 3 3 3 3 3 3 5 7 9 10 9 9 8 8 8 7 6 5 6 5 7 8 6 6
9 7 7 11 11 11 11 11 10 10 10 8 6 8 7 6 5 4 3 2 2 2 3 2 3 4 4 6 9 11 9 9 7 7 7 7 7 6 6 6 9 9 9 8
12 12 12 14 14 13 12 12 11 10 10 10 8 7 6 5 3 2 2 3 2 2 3 3 4 4 4 6 8 9 10 9 7 7 7 7 7 8 7 6 8 9 9 9
11 10 12 12 13 13 12 12 10 9 8 8 7 6 4 3 2 2 3 2 2 3 3 3 4 4 4 6 8 9 9 9 9 7 7 7 7 7 7 7 6 3 5 8
11 10 13 13 13 12 10 8 8 8 7 6 6 5 4 4 3 3 2 2 3 3 3 4 5 4 4 7 9 9 8 7 7 7 6 6 6 6 6 6 6 4 3 4
12 11 11 11 12 12 10 9 9 9 7 6 5 4 3 2 2 2 2 3 4 4 4 4 5 4 5 8 9 8 7 11 10 8 7 7 6 6 6 6 5 5 4 3
11 12 11 11 12 12 11 11 10 9 7 6 5 3 3 3 3 2 2 2 3 3 3 5 5 5 6 8 9 7 7 9 12 8 6 6 6 6 6 6 5 4 3 4
13 14 13 12 12 12 12 10 9 8 7 6 4 4 4 5 5 4 4 5 6 5 3 4 6 7 7 8 8 7 7 7 6 7 6 6 6 6 6 5 5 5 3 3
12 13 13 12 11 11 11 9 8 7 5 4 4 4 3 3 4 5 5 6 6 5 2 4 10 8 8 8 9 7 8 8 7 6 6 9 7 5 5 5 5 5 4 3
11 11 11 10 9 8 8 6 4 3 4 4 4 4 4 4 4 5 6 4 2 3 5 7 8 7 8 8 10 7 8 8 8 7 6 6 6 5 5 5 5 4 4 3
10 10 9 7 6 5 4 3 3 3 3 4 5 6 5 5 5 5 7 5 3 5 7 10 7 6 7 8 10 7 7 7 7 6 6 6 6 5 5 4 4 4 3 3
9 7 6 4 3 2 2 0 2 3 4 4 5 6 7 7 6 6 5 4 5 8 7 6 6 9 10 10 7 7 7 7 6 6 5 5 5 5 4 4 4 3 3 3
7 6 5 3 2 2 3 3 4 5 5 5 6 7 7 6 5 6 6 4 5 9 7 6 10 14 14 8 7 7 7 7 6 5 5 5 4 4 4 4 3 3 3 2
7 5 4 3 3 5 5 5 6 6 7 7 6 6 7 7 6 5 6 10 12 12 8 10 15 15 12 7 7 7 6 6 6 5 5 5 4 4 3 3 3 2 2 2
6 5 4 4 5 4 5 6 8 8 8 7 8 8 6 6 7 7 7 9 13 12 9 11 15 14 9 7 7 6 5 5 5 5 5 4 4 3 3 2 2 2 2 1
5 4 4 5 4 4 4 5 5 6 6 7 7 7 7 7 9 8 8 10 11 12 9 7 8 9 7 7 7 6 5 5 5 5 4 4 3 3 2 2 2 1 1 1
5 5 5 5 6 5 5 6 6 6 6 7 8 7 8 8 8 9 9 8 8 8 8 7 7 6 6 6 6 5 5 4 4 4 4 3 2 2 2 2 1 1 1 1
Wind_Direction
268 271 254 244 228 216 216 217 219 230 231 247 251 250 253 253 263 264 244 227 224 223 216 205 199 191 183 181 172 169 173 182 188 184 180 177 177 177 177 179 180 178 178 179
272 265 256 260 239 223 223 223 230 242 243 238 248 250 252 239 231 254 258 249 240 232 223 217 207 197 186 182 177 171 178 183 178 172 173 175 175 173 173 175 174 173 177 177
257 271 277 248 224 214 215 216 217 230 234 213 241 250 248 234 226 235 248 252 245 233 225 223 212 194 190 181 171 174 179 175 171 171 172 173 169 169 172 174 170 172 174 174
261 241 231 238 210 221 228 231 226 239 246 209 231 241 240 222 219 241 252 256 256 252 244 231 205 183 167 160 168 174 176 175 171 169 169 165 166 171 171 168 170 171 172 174
237 247 267 282 259 208 215 234 238 249 256 249 257 255 252 245 233 238 238 240 239 238 239 223 193 171 153 159 166 174 180 179 174 169 166 166 169 169 164 161 163 165 166 168
221 231 242 263 297 289 210 240 265 254 266 268 165 233 251 263 260 262 263 257 250 249 237 212 194 162 159 167 174 187 186 177 169 166 166 168 167 159 150 153 156 153 154 164
218 239 261 278 309 69 180 247 290 261 250 229 218 236 263 257 252 251 255 254 241 225 220 217 184 164 169 174 191 187 164 156 158 163 163 159 152 146 146 142 141 144 146 151
202 222 246 303 38 165 262 293 300 287 265 251 250 258 269 254 250 251 254 250 229 217 233 213 175 168 176 190 181 151 148 150 154 155 152 146 144 143 144 144 144 145 143 141
208 230 258 251 241 254 264 280 287 288 288 279 277 275 273 264 252 250 246 244 231 210 223 220 186 178 183 184 152 146 146 150 148 145 144 147 148 147 145 146 147 149 150 153
254 260 269 273 274 277 275 278 282 283 285 278 277 278 275 268 256 249 246 239 224 195 199 226 206 188 178 160 150 146 148 149 147 145 143 141 142 147 151 155 153 152 154 158
254 269 283 274 265 275 285 286 288 289 282 270 270 279 276 270 258 247 244 239 215 199 201 213 188 175 163 154 147 144 145 146 145 144 144 140 137 145 152 161 164 159 165 163
250 256 264 275 282 282 281 283 285 288 292 290 270 271 276 267 254 239 231 229 208 194 181 182 165 164 161 153 149 145 145 148 148 145 143 141 134 114 103 122 136 140 147 152
256 270 269 273 279 278 276 279 280 277 276 283 282 271 264 262 253 224 209 209 198 191 176 164 155 158 162 152 148 148 149 150 146 146 145 144 143 139 128 99 108 122 132 138
261 268 271 271 274 279 279 281 284 283 277 273 276 270 249 249 244 222 211 205 175 153 151 152 146 157 159 145 139 139 139 142 142 144 144 144 144 143 143 141 135 113 120 133
263 258 261 274 278 280 279 278 281 282 282 284 278 257 229 214 218 218 197 162 141 133 141 142 141 151 144 137 135 135 135 137 135 133 133 134 134 132 133 135 136 132 117 124
284 279 272 272 274 277 278 273 270 272 274 275 270 254 236 204 189 178 174 168 154 154 157 144 143 147 136 131 127 124 127 133 132 132 131 131 132 134 135 136 137 140 143 142
282 281 280 281 277 274 271 267 263 262 265 262 253 224 182 156 149 146 132 119 120 122 132 136 137 134 128 128 125 125 125 129 128 126 129 133 135 137 139 140 142 142 146 156
265 267 270 271 272 272 271 268 261 255 251 248 229 193 182 175 170 160 143 124 105 87 80 112 121 117 114 117 119 121 122 124 126 128 127 128 129 130 133 135 138 138 137 142
278 275 274 272 269 267 266 263 255 245 234 217 200 190 180 164 156 153 141 131 127 123 120 121 123 113 113 117 117 116 118 119 118 117 120 126 121 123 128 132 136 140 143 142
287 283 280 280 277 267 263 258 245 226 213 190 171 156 149 146 144 139 123 110 108 132 130 123 116 112 112 116 114 114 119 121 122 122 121 123 125 126 128 132 136 140 142 146
297 291 287 286 287 282 266 243 204 190 179 161 158 156 147 134 132 131 121 110 97 114 119 121 114 114 112 118 113 113 116 119 122 125 126 126 126 127 130 133 136 141 144 146
308 301 297 297 307 316 319 172 150 144 132 130 131 132 129 126 119 102 89 110 124 121 114 112 112 118 120 116 109 112 114 116 118 119 121 124 128 131 133 135 138 143 145 150
316 316 320 326 352 32 50 63 92 110 116 123 127 128 125 122 122 120 113 112 118 115 108 109 119 120 116 107 108 109 110 112 114 116 118 120 123 129 134 136 139 143 149 160
335 343 354 12 49 68 66 62 75 84 88 87 88 97 108 107 89 77 101 115 112 106 100 110 112 111 105 100 102 103 105 108 110 110 111 111 115 121 129 135 140 148 159 169
352 5 20 42 60 68 76 80 82 83 84 83 77 73 75 84 97 101 99 101 104 99 98 101 99 95 90 93 95 97 100 107 112 113 111 115 119 122 127 133 143 151 161 178
4 17 30 40 53 67 77 83 85 84 88 89 81 77 80 84 91 93 92 90 92 93 89 85 86 85 84 87 90 93 95 99 96 98 108 112 117 121 126 129 138 158 178 201
21 31 42 48 49 53 63 71 77 79 83 92 91 85 85 87 88 89 90 88 85 82 80 78 76 78 81 83 85 86 87 88 91 96 101 104 109 116 124 135 154 180 206 228